Flag for Canada Weather past 2 weeks in Laval, Quebec, Canada

Now
52 °F

Overcast.


Feels Like: 49 °F
Forecast: 42 / 54 °F
Wind: 9 mph from South

Location: Montreal / Mirabel

Current Time: Oct 25, 2014 at 1:43:56 PM

Latest Report: Oct 25, 2014 at 1:00 PM


Visibility: 25 mi

Pressure: 29.59 "Hg

Humidity: 72%

Dew point: 43 °F

Location of LavalLocation

Historic Weather in Laval — Graph

°F

Laval temperature yesterday

Maximum temperature yesterday: 57 °F (at 2:00 PM)
Minimum temperature yesterday: 45 °F (at 12:00 AM)
Average temperature yesterday: 49 °F

Past Weeks' High & Low Weather Summary

 TemperatureHumidityPressure
High73 °F (Oct 14, 1:00 PM)100% (Oct 11, 3:00 AM)30.32 "Hg (Oct 11, 3:00 AM)
Low30 °F (Oct 11, 7:00 AM)42% (Oct 19, 6:00 PM)29.46 "Hg (Oct 18, 5:00 AM)
Average50 °F77%29.95 "Hg
* Reported Oct 10 12:00 Noon — Oct 25 12:00 Noon, Laval, Weather by CustomWeather, © 2014

Note: Actual official high and low records may vary slightly from our data, if they occured in-between our weather recording intervals... More about our weather records

Advertising

Laval weather history for previous 24 hours

 ConditionsComfort  
Time TempWeatherWind HumidityBarometerVisibility
12:00 PM
Oct 25
48 °FMostly cloudy.10 mph71%29.65 "Hg25 mi
11:00 AM48 °FMostly cloudy.9 mph71%29.69 "Hg45 mi
10:00 AM45 °FBroken clouds.8 mph76%29.72 "Hg45 mi
9:00 AM41 °FScattered clouds.9 mph81%29.74 "Hg45 mi
8:00 AM39 °FPassing clouds.6 mph87%29.74 "Hg25 mi
7:00 AM39 °FPassing clouds.7 mph93%29.74 "Hg25 mi
6:00 AM41 °FPassing clouds.7 mph93%29.74 "Hg25 mi
5:00 AM41 °FPassing clouds.6 mph93%29.74 "Hg25 mi
4:00 AM43 °FPassing clouds.6 mph87%29.75 "Hg25 mi
3:00 AM45 °FPassing clouds.7 mph87%29.76 "Hg25 mi
2:00 AM46 °FPassing clouds.6 mph82%29.77 "Hg25 mi
1:00 AM46 °FPassing clouds.6 mph82%29.77 "Hg25 mi
12:00 AM45 °FPassing clouds.5 mph81%29.79 "Hg25 mi
11:00 PM
Oct 24
46 °FPassing clouds.2 mph82%29.80 "Hg25 mi
10:00 PM46 °FPassing clouds.3 mph82%29.82 "Hg25 mi
9:00 PM46 °FPassing clouds.2 mph82%29.83 "Hg25 mi
8:00 PM50 °FPassing clouds.5 mph71%29.84 "Hg25 mi
7:00 PM50 °FPartly cloudy.5 mph67%29.84 "Hg25 mi
6:00 PM52 °FPartly sunny.5 mph62%29.84 "Hg25 mi
5:00 PM52 °FBroken clouds.8 mph62%29.84 "Hg45 mi
4:00 PM55 °FPartly sunny.6 mph59%29.85 "Hg45 mi
3:00 PM57 °FPartly sunny.7 mph51%29.84 "Hg45 mi
2:00 PM57 °FBroken clouds.2 mph48%29.87 "Hg45 mi
1:00 PM54 °FBroken clouds.8 mph54%29.89 "Hg45 mi
Weather by CustomWeather, © 2014

See weather overviewHow to use our weather pages